User: anonymous   Login
Location: Caltech
(34.1382°N, 118.1253°W)
Time: 01:27:15
(UTC-08:00)
Language:

TMSAT-1 - Orbit

View from above orbital plane
View from above orbital plane
View from above satellite
View from above satellite

Ground track
Ground track

The orbit data is extracted from the following two-line orbital elements,

1 25396U 98043C   17053.17200019  .00000008  00000-0  21910-4 0  9990
2 25396  98.5723 359.8651 0001856 323.9515  36.1539 14.24428861967791
Epoch (UTC): 22 February 2017 04:07:40
Eccentricity: 0.0001856
inclination: 98.5723°
perigee height: 809 km
apogee height: 812 km
right ascension of ascending node: 359.8651°
argument of perigee: 323.9515°
revolutions per day: 14.24428861
mean anomaly at epoch: 36.1539°
orbit number at epoch: 96779

The dashed part of the orbit path shows where the satellite is in the earth's shadow,  

DLR